Location: Oriwa
(40.7500°S, 175.3333°E)
Time: 14:09:06
(UTC+00:00)

Cosmos 1092 Rocket - Pass Details

Date: 03 February 2023
Orbit: 954 x 995 km, 83.0° (Epoch: 31 March)

Event Time Altitude Azimuth Distance (km) Brightness Sun altitude
Rises 16:39:58 0° 187° (S) 3,720 7.4 -9.1°
Reaches altitude 10° 16:42:30 10° 186° (S) 2,771 6.7 -8.7°
Maximum altitude 16:48:53 85° 97° (E) 1,009 4.2 -7.6°
Drops below altitude 10° 16:55:15 10° 8° (N) 2,758 6.2 -6.6°
Sets 16:57:46 0° 7° (N) 3,701 6.8 -6.1°
